Temperature
5 5 5 5 5 5 5 5 5 4 4 5 5 4 5 5 5 5 5 5 5 5 5 5 5 5 5 5 5 5 5 4 4 5 5 4 4 5 5 5 5 5 5
4 4 4 4 4 4 4 4 4 4 4 4 4 4 4 4 4 4 4 4 4 4 4 4 4 5 4 4 4 4 4 4 4 4 4 4 4 4 4 4 4 4 4
4 4 4 4 4 4 4 4 4 4 4 4 4 3 3 3 3 3 3 4 4 4 4 4 4 4 4 4 4 4 4 4 4 4 4 4 4 4 4 4 4 4 4
4 4 4 4 3 3 3 3 3 3 3 3 3 3 3 3 3 3 3 3 3 3 3 3 3 3 4 3 3 3 3 3 3 3 3 4 4 4 3 4 4 4 4
3 3 3 3 3 3 3 3 3 3 3 3 3 2 2 2 2 2 2 2 2 3 3 3 3 3 3 3 3 3 3 3 3 3 3 3 3 3 3 3 3 3 3
3 3 3 3 3 2 2 2 2 2 2 2 2 2 2 2 2 2 2 2 2 2 2 2 2 2 2 2 2 2 2 2 2 2 2 2 2 2 2 2 2 2 2
2 3 2 2 2 2 2 2 2 2 2 2 2 2 1 1 1 1 1 1 1 1 2 2 2 2 2 2 2 2 2 2 2 2 2 2 2 2 2 2 2 1 2
2 2 2 2 2 2 2 2 2 1 1 1 1 1 1 1 1 1 1 1 1 1 1 1 1 2 1 1 1 1 2 2 1 1 1 1 1 1 1 1 1 1 2
2 2 1 1 1 1 1 1 1 1 1 1 1 1 0 0 0 0 0 0 0 0 0 1 1 1 1 1 1 1 1 1 1 1 1 1 1 1 1 1 1 1 1
1 1 1 1 1 1 1 1 0 0 0 0 0 0 -0 -0 -0 -0 -0 -0 -0 -0 -0 -0 0 0 0 0 0 1 1 1 1 1 1 1 1 1 1 0 0 0 -0
1 1 1 0 0 0 0 0 0 -0 -0 -0 -0 -0 -1 -1 -1 -1 -1 -1 -1 -1 -1 -1 -1 -1 -0 -0 -0 -0 0 0 1 1 1 1 1 1 1 0 -0 -0 -0
0 0 0 -0 -0 -0 -0 -0 -0 -1 -1 -1 -1 -1 -1 -1 -1 -1 -1 -2 -2 -2 -1 -1 -1 -1 -1 -1 -1 -1 -0 -0 0 0 0 0 0 0 0 0 0 -0 -0
-0 -0 -0 -1 -1 -1 -1 -1 -1 -1 -1 -1 -2 -2 -2 -2 -2 -2 -2 -2 -2 -2 -2 -2 -2 -2 -1 -1 -1 -1 -1 -0 -0 -0 -0 -0 -0 -0 -0 -0 -0 -0 -0
-1 -1 -1 -1 -1 -1 -2 -2 -2 -2 -2 -2 -2 -2 -2 -2 -2 -2 -2 -2 -2 -2 -2 -2 -2 -2 -2 -2 -1 -1 -1 -1 -1 -1 -1 -1 -1 -1 -1 -1 -1 -0 -0
-2 -2 -2 -2 -2 -2 -2 -2 -2 -3 -3 -3 -3 -3 -3 -3 -3 -3 -3 -3 -3 -3 -3 -2 -2 -2 -2 -2 -2 -2 -2 -1 -1 -1 -1 -1 -1 -1 -1 -1 -1 -1 -1
-2 -2 -2 -3 -3 -3 -3 -3 -3 -3 -3 -3 -3 -3 -3 -4 -3 -3 -3 -3 -3 -3 -3 -3 -3 -3 -3 -3 -3 -3 -2 -2 -2 -2 -2 -2 -2 -2 -2 -2 -2 -2 -1
-3 -3 -3 -3 -3 -3 -3 -3 -3 -3 -4 -4 -4 -4 -4 -4 -4 -4 -4 -4 -4 -4 -4 -4 -4 -4 -4 -3 -3 -3 -3 -3 -3 -3 -2 -2 -2 -2 -2 -2 -2 -2 -2
-3 -3 -3 -3 -4 -4 -4 -4 -4 -4 -4 -4 -4 -4 -4 -4 -4 -4 -4 -4 -4 -4 -4 -4 -4 -4 -4 -4 -4 -4 -4 -3 -3 -3 -3 -3 -3 -3 -3 -3 -3 -3 -2
-4 -4 -4 -4 -4 -4 -4 -4 -4 -4 -4 -4 -4 -5 -5 -5 -5 -5 -5 -5 -5 -5 -5 -5 -5 -5 -5 -5 -4 -4 -4 -4 -4 -3 -3 -3 -4 -4 -4 -4 -3 -3 -3
-4 -4 -4 -4 -4 -5 -5 -5 -5 -5 -5 -5 -5 -5 -5 -5 -5 -5 -5 -5 -5 -5 -5 -5 -5 -5 -5 -5 -5 -5 -4 -4 -4 -4 -4 -4 -4 -4 -4 -4 -4 -3 -3
-4 -5 -5 -5 -5 -5 -5 -5 -5 -5 -6 -6 -6 -6 -6 -6 -6 -6 -6 -6 -6 -6 -6 -6 -6 -6 -6 -6 -5 -5 -5 -4 -4 -4 -4 -4 -4 -4 -4 -4 -4 -4 -3
-5 -5 -5 -5 -5 -6 -6 -6 -6 -6 -6 -6 -6 -6 -6 -7 -7 -7 -7 -7 -7 -7 -7 -7 -6 -6 -6 -6 -6 -5 -5 -5 -5 -4 -4 -4 -4 -4 -4 -4 -4 -4 -4
-5 -6 -6 -6 -6 -6 -6 -6 -6 -6 -6 -6 -7 -7 -7 -7 -7 -7 -7 -7 -7 -7 -7 -7 -7 -7 -6 -6 -6 -6 -6 -5 -5 -5 -5 -5 -5 -4 -4 -4 -4 -4 -4
-6 -6 -6 -6 -6 -6 -7 -7 -7 -7 -7 -7 -7 -7 -7 -7 -7 -7 -7 -7 -7 -7 -7 -7 -7 -7 -7 -6 -6 -6 -6 -5 -5 -5 -5 -5 -5 -5 -5 -4 -4 -4 -4
-6 -6 -6 -6 -7 -7 -7 -7 -7 -7 -7 -7 -7 -7 -7 -7 -7 -7 -8 -8 -8 -7 -7 -7 -7 -7 -7 -6 -6 -6 -6 -5 -5 -5 -5 -5 -5 -5 -5 -5 -4 -4 -4
-6 -7 -7 -7 -7 -7 -7 -7 -7 -7 -7 -7 -8 -8 -8 -8 -8 -7 -8 -8 -8 -8 -7 -7 -7 -7 -7 -7 -6 -6 -6 -5 -5 -5 -5 -5 -5 -5 -5 -5 -5 -4 -4
Wind_Speed
2 2 2 2 2 2 1 1 1 0 1 1 1 1 1 1 0 0 0 1 0 0 0 0 1 1 0 0 0 0 1 1 3 4 3 3 3 4 6 7 7 7 8
2 2 2 1 2 2 1 1 1 0 0 1 1 1 1 1 0 0 0 0 0 1 1 1 1 1 1 1 1 1 1 1 2 4 4 3 4 4 4 5 7 7 7
1 2 2 2 2 1 1 1 1 1 0 0 1 1 1 1 1 1 0 1 1 1 1 1 1 1 1 1 1 1 2 2 1 3 4 3 3 4 5 5 6 5 7
1 2 2 1 2 2 1 1 1 1 0 0 1 1 1 1 1 1 0 0 1 1 1 1 2 2 2 2 2 2 1 1 2 2 3 4 4 4 4 5 6 5 6
1 1 1 1 1 1 1 1 0 0 0 0 1 1 1 1 1 1 0 0 1 1 2 2 2 2 2 2 2 1 1 1 2 2 3 4 4 4 4 4 6 6 6
1 1 1 1 1 1 1 1 0 0 1 1 1 1 1 2 2 1 1 0 1 1 2 2 2 2 2 4 4 3 2 2 2 2 3 4 5 5 5 5 5 6 5
0 1 1 1 1 1 1 1 1 1 1 1 2 1 2 2 3 2 1 0 1 1 2 2 2 2 3 2 3 4 4 4 4 3 4 5 5 5 5 5 5 6 6
0 0 0 0 0 0 0 0 1 1 1 1 1 1 1 2 3 3 2 1 0 1 2 2 2 2 3 2 2 2 3 3 4 3 3 5 5 5 5 5 5 6 6
1 1 1 1 1 0 1 1 1 1 1 1 1 1 1 2 3 3 2 1 1 2 2 2 2 2 4 5 2 3 4 3 4 5 6 7 8 8 6 3 3 4 5
2 2 1 1 1 1 1 1 1 1 1 1 1 1 1 2 3 2 2 0 1 2 2 3 3 4 5 6 3 2 4 4 3 4 5 6 5 6 6 3 3 4 4
2 1 1 1 1 1 0 0 0 0 1 1 1 1 1 1 2 3 2 0 1 2 2 2 3 6 6 6 5 3 5 4 2 3 3 3 3 3 4 4 4 4 4
1 1 1 0 0 0 1 0 0 0 1 1 1 2 1 1 2 3 3 3 3 1 2 3 4 7 7 6 5 5 4 3 1 2 3 3 3 4 4 4 5 5 5
1 1 1 1 1 1 1 0 1 1 0 1 1 1 2 1 2 4 4 4 4 2 2 4 6 7 6 4 5 6 3 2 1 2 3 4 3 4 4 4 4 5 5
1 1 1 1 1 1 1 0 0 0 0 1 1 1 2 2 2 2 2 2 3 3 2 4 6 6 4 5 5 4 3 2 2 3 3 3 3 3 3 3 4 4 4
0 1 1 1 1 1 1 1 1 1 2 2 2 2 1 2 3 5 3 2 1 2 2 2 2 3 3 3 3 3 3 2 3 2 3 3 3 3 3 3 3 3 3
0 0 0 0 0 0 1 2 3 2 3 3 2 2 2 3 5 5 5 4 4 3 2 1 2 3 3 3 4 3 3 3 3 3 3 3 3 3 4 4 3 3 4
1 1 0 0 0 0 0 1 2 3 3 3 3 3 3 4 4 4 4 4 3 3 1 2 2 3 3 3 4 3 3 3 3 3 3 3 3 3 3 4 4 4 4
1 1 1 1 1 1 1 1 1 1 2 2 3 4 4 4 4 4 4 3 2 2 2 2 2 3 3 3 3 3 4 3 3 3 3 3 3 3 3 4 4 4 4
1 1 1 1 1 1 1 1 1 1 1 1 2 3 4 4 3 4 4 2 1 2 2 3 3 3 3 3 4 4 4 4 3 3 3 3 3 3 3 4 4 5 5
2 3 2 1 1 1 1 1 1 1 1 1 1 2 2 2 1 2 2 1 2 2 3 3 3 3 3 4 4 4 4 4 4 3 3 3 3 3 4 4 4 4 4
1 2 2 1 1 1 1 1 1 1 1 1 2 2 3 2 1 2 2 2 2 3 3 3 3 3 3 4 4 4 4 4 4 4 3 3 3 3 3 3 4 4 3
1 1 1 1 1 1 1 1 1 1 2 2 2 2 4 2 2 2 2 2 2 3 3 3 3 3 3 3 4 4 4 4 4 4 4 4 3 4 3 3 3 3 3
1 1 1 1 1 2 2 1 1 2 2 2 2 2 2 2 2 2 2 3 2 3 3 4 4 4 4 4 5 4 4 4 5 4 4 4 4 4 3 3 4 3 3
2 2 2 2 2 2 2 2 2 2 2 2 2 2 2 2 2 3 3 3 3 3 4 4 4 5 6 6 6 6 6 7 6 6 5 4 4 4 3 3 3 3 3
2 2 2 2 2 2 2 2 2 2 2 2 2 3 3 3 3 3 3 3 3 4 5 5 5 5 7 7 7 7 8 8 7 6 5 4 4 4 4 4 3 3 3
2 2 2 2 2 2 2 3 3 3 3 3 3 3 3 3 3 3 3 3 3 4 5 5 6 7 8 7 7 8 8 8 7 7 5 3 3 4 4 3 3 3 2
Wind_Direction
174 169 161 165 151 134 140 143 144 252 336 1 340 358 357 345 358 71 350 7 29 325 339 179 295 346 316 290 290 259 264 248 264 285 283 301 305 307 318 322 315 312 310
179 157 159 149 131 133 157 164 172 184 322 326 334 340 328 332 317 184 289 309 286 278 271 284 301 321 328 281 258 259 262 273 266 289 300 305 305 304 312 318 325 319 317
175 155 152 150 147 166 184 171 169 155 187 339 357 289 284 291 272 287 274 278 280 284 258 242 273 262 280 282 267 259 271 293 289 287 300 305 311 322 325 321 321 320 324
155 152 157 171 182 187 184 175 171 165 142 7 325 290 294 292 252 244 214 308 298 304 288 244 246 244 252 269 265 265 285 301 301 295 304 314 318 323 321 324 325 323 320
136 150 179 182 169 149 148 177 163 160 343 294 307 304 301 288 239 218 202 299 280 290 302 283 262 272 289 296 297 282 275 281 297 302 307 317 317 323 319 320 315 318 310
162 182 188 142 149 161 176 162 145 305 313 304 294 290 299 300 302 307 4 208 254 261 284 297 287 293 309 319 321 320 307 278 277 290 296 299 303 311 314 316 316 321 313
224 198 164 159 190 209 180 150 196 241 265 281 286 276 286 298 316 313 319 27 254 263 269 282 295 307 314 296 318 326 318 313 295 276 278 284 289 293 301 305 308 308 297
243 328 267 186 207 233 143 224 252 246 249 260 278 255 276 303 322 326 337 32 310 279 286 276 274 293 300 301 293 305 293 287 288 284 265 272 283 286 282 286 294 302 297
327 299 281 229 203 201 222 250 256 247 261 265 279 238 255 293 314 327 5 34 325 307 309 301 291 281 301 306 291 293 300 296 304 310 310 306 305 303 304 302 303 312 310
299 287 265 216 193 206 230 240 264 261 266 286 302 265 243 274 306 334 1 29 321 321 319 312 297 299 303 312 280 271 285 291 303 314 319 319 311 304 306 288 275 288 304
315 317 299 235 219 209 206 264 315 332 353 336 331 336 305 299 312 333 350 354 301 310 313 310 305 311 309 312 304 269 275 295 296 300 304 308 308 301 299 299 278 269 282
356 21 358 318 283 105 102 14 13 51 34 353 -0 355 339 318 327 327 337 334 328 295 299 298 301 318 317 317 312 294 301 315 298 302 306 308 312 310 304 302 300 291 275
51 40 2 14 24 57 98 62 28 62 52 327 340 334 336 333 329 335 334 334 333 330 308 312 316 321 326 321 318 313 310 297 285 294 295 295 290 287 297 308 310 307 300
64 26 25 46 24 18 27 28 72 207 254 281 293 301 313 322 319 317 319 330 340 337 335 331 334 334 335 331 330 329 319 290 282 280 289 292 295 301 304 307 309 317 317
55 35 26 24 31 12 359 332 285 240 237 247 245 248 271 292 304 319 328 321 320 312 337 355 349 339 335 329 324 317 317 322 318 302 292 300 306 316 317 316 311 312 310
352 346 343 329 350 3 342 338 337 325 318 312 307 298 288 302 313 322 328 333 336 337 358 339 320 313 307 309 310 313 311 312 311 304 297 298 307 314 316 317 314 309 308
273 285 286 290 289 296 298 294 318 341 352 355 347 336 334 331 336 336 343 350 346 352 352 315 301 299 300 302 302 301 303 303 302 301 303 302 302 308 311 312 314 313 312
301 285 285 264 250 256 266 270 273 304 329 340 349 351 348 346 349 354 5 16 359 356 335 317 308 305 304 304 304 304 304 304 303 301 301 302 300 303 305 306 306 308 310
307 296 281 266 258 253 258 265 279 286 302 319 338 342 345 344 350 3 23 27 340 330 328 322 315 309 306 304 302 301 300 300 299 295 295 297 295 295 297 299 301 306 312
293 288 288 269 261 262 250 244 253 263 285 302 310 321 325 337 348 354 357 341 325 316 313 311 310 306 305 302 303 301 298 298 297 296 296 297 295 292 294 297 298 298 303
285 284 285 288 261 250 244 242 239 241 260 276 282 294 305 310 308 314 317 316 312 307 307 305 302 301 301 303 305 305 303 298 295 293 293 294 297 295 294 294 295 295 300
274 276 271 261 255 245 243 233 233 237 255 268 282 296 301 311 301 298 298 303 306 306 304 303 301 299 298 299 300 303 304 302 300 298 299 297 297 297 297 296 298 297 298
253 264 270 270 258 263 273 246 237 243 256 265 269 280 289 291 293 296 301 306 309 307 308 303 299 301 307 303 299 295 295 297 296 293 295 297 296 295 295 295 295 295 296
239 250 258 262 260 252 247 248 246 252 259 266 271 273 275 279 286 293 297 303 306 305 304 300 295 296 301 305 301 296 293 296 301 298 291 291 295 296 293 290 292 293 292
235 244 252 253 251 251 251 253 254 256 261 265 267 272 277 281 285 289 292 297 300 302 304 303 298 296 296 298 299 298 299 303 306 308 305 299 295 293 291 284 281 286 291
236 241 246 247 246 246 248 251 256 260 262 265 266 268 272 276 279 283 290 294 303 305 305 302 294 294 298 296 294 298 300 303 306 309 309 297 293 295 296 290 283 279 280
Height
1486 1486 1486 1486 1487 1487 1488 1487 1488 1488 1488 1488 1489 1489 1489 1489 1489 1489 1489 1489 1489 1489 1489 1488 1488 1488 1488 1488 1488 1488 1487 1487 1485 1483 1482 1481 1479 1477 1476 1474 1472 1470 1469
1484 1484 1485 1485 1485 1485 1485 1485 1486 1487 1487 1487 1487 1487 1487 1487 1487 1487 1486 1487 1487 1486 1486 1486 1485 1485 1485 1485 1485 1485 1484 1483 1482 1479 1478 1477 1476 1474 1472 1470 1469 1467 1465
1483 1482 1483 1483 1483 1483 1483 1484 1485 1485 1485 1485 1485 1485 1485 1485 1484 1484 1484 1484 1484 1484 1484 1483 1483 1483 1482 1482 1482 1481 1481 1480 1479 1477 1475 1473 1472 1471 1469 1467 1465 1464 1462
1481 1481 1481 1481 1481 1481 1482 1482 1482 1482 1482 1482 1482 1482 1482 1482 1482 1482 1482 1482 1481 1481 1481 1480 1480 1480 1479 1479 1479 1478 1477 1477 1476 1474 1472 1470 1468 1467 1466 1463 1461 1460 1458
1480 1479 1479 1480 1480 1480 1480 1480 1480 1480 1480 1480 1480 1480 1480 1479 1479 1479 1479 1479 1479 1478 1478 1477 1477 1477 1477 1476 1476 1475 1474 1473 1472 1471 1469 1467 1465 1464 1462 1460 1458 1456 1454
1478 1478 1478 1478 1478 1478 1478 1478 1478 1478 1478 1478 1477 1477 1477 1477 1477 1477 1477 1476 1476 1475 1475 1474 1474 1474 1474 1473 1473 1472 1471 1470 1469 1468 1466 1464 1462 1461 1459 1457 1456 1453 1450
1476 1476 1476 1476 1475 1476 1476 1476 1476 1476 1476 1475 1475 1475 1475 1475 1475 1474 1474 1473 1473 1472 1472 1471 1471 1470 1470 1469 1469 1469 1468 1467 1467 1466 1463 1462 1460 1459 1457 1455 1453 1452 1449
1474 1474 1474 1473 1473 1473 1473 1473 1473 1474 1474 1473 1473 1472 1472 1472 1472 1471 1471 1470 1470 1469 1469 1468 1468 1467 1467 1467 1466 1466 1465 1464 1463 1462 1461 1459 1458 1457 1455 1453 1451 1448 1446
1472 1472 1471 1471 1471 1471 1471 1471 1472 1472 1471 1471 1470 1470 1470 1469 1469 1469 1469 1468 1467 1466 1466 1465 1464 1464 1464 1464 1464 1462 1461 1460 1460 1459 1457 1456 1455 1453 1452 1450 1448 1445 1442
1470 1470 1470 1469 1469 1469 1469 1469 1469 1469 1469 1469 1468 1468 1467 1467 1467 1466 1466 1465 1464 1463 1462 1462 1462 1462 1461 1461 1460 1459 1458 1457 1456 1455 1454 1453 1452 1450 1449 1447 1445 1443 1440
1468 1468 1467 1467 1467 1467 1467 1467 1467 1467 1467 1466 1466 1465 1465 1465 1464 1464 1463 1463 1462 1461 1460 1459 1459 1459 1458 1457 1457 1456 1455 1454 1453 1452 1450 1449 1448 1447 1446 1444 1443 1441 1439
1466 1465 1465 1465 1465 1465 1465 1465 1465 1465 1464 1464 1463 1463 1463 1462 1462 1461 1461 1460 1460 1458 1457 1457 1456 1455 1455 1454 1453 1452 1452 1451 1450 1449 1447 1446 1445 1444 1443 1441 1440 1438 1436
1463 1463 1463 1463 1463 1463 1462 1462 1462 1462 1462 1462 1461 1461 1460 1460 1460 1459 1459 1458 1457 1456 1455 1454 1453 1452 1451 1450 1450 1449 1448 1448 1447 1445 1444 1443 1442 1441 1440 1438 1436 1435 1433
1461 1461 1461 1461 1461 1461 1460 1460 1460 1460 1460 1459 1459 1459 1458 1458 1457 1456 1456 1455 1454 1453 1452 1451 1450 1449 1448 1448 1447 1446 1445 1445 1443 1442 1441 1440 1439 1438 1437 1435 1433 1431 1429
1459 1459 1459 1459 1458 1458 1458 1458 1458 1458 1458 1458 1457 1457 1456 1455 1455 1455 1454 1453 1452 1451 1450 1449 1448 1447 1446 1445 1444 1443 1443 1442 1441 1440 1439 1438 1436 1435 1433 1432 1430 1428 1427
1458 1457 1457 1457 1456 1456 1456 1456 1456 1456 1456 1455 1455 1455 1454 1453 1453 1452 1452 1451 1450 1449 1448 1446 1445 1444 1443 1442 1441 1440 1440 1439 1438 1437 1436 1435 1433 1432 1430 1429 1428 1426 1424
1456 1455 1455 1454 1454 1454 1454 1454 1453 1454 1453 1453 1452 1452 1451 1451 1450 1450 1449 1448 1448 1447 1446 1444 1443 1442 1441 1440 1439 1438 1437 1436 1435 1434 1433 1432 1431 1429 1428 1426 1425 1424 1422
1454 1453 1453 1452 1452 1452 1452 1451 1451 1450 1450 1449 1450 1449 1449 1448 1448 1447 1446 1446 1445 1444 1443 1442 1441 1440 1439 1438 1437 1436 1435 1434 1433 1432 1430 1429 1428 1427 1426 1424 1423 1422 1420
1451 1451 1451 1450 1450 1449 1449 1449 1448 1448 1447 1447 1446 1446 1446 1445 1444 1444 1443 1443 1442 1441 1440 1439 1438 1437 1437 1435 1434 1433 1432 1431 1430 1429 1428 1427 1426 1425 1423 1422 1421 1420 1418
1449 1449 1448 1447 1447 1447 1446 1446 1446 1445 1445 1444 1443 1443 1442 1442 1441 1440 1440 1440 1439 1438 1437 1436 1435 1434 1433 1432 1431 1430 1429 1428 1427 1426 1425 1424 1423 1422 1421 1420 1419 1418 1417
1446 1446 1445 1445 1444 1444 1443 1443 1443 1442 1442 1441 1441 1440 1440 1439 1438 1438 1437 1436 1436 1435 1434 1433 1432 1431 1430 1429 1428 1427 1426 1426 1425 1424 1423 1422 1421 1420 1419 1418 1417 1416 1415
1443 1443 1442 1442 1441 1441 1440 1440 1440 1440 1439 1439 1438 1438 1437 1436 1436 1435 1434 1433 1433 1432 1431 1430 1429 1428 1427 1426 1425 1424 1423 1423 1422 1422 1421 1420 1419 1418 1417 1416 1415 1414 1413
1441 1440 1440 1439 1439 1438 1438 1438 1437 1437 1436 1436 1435 1435 1434 1434 1433 1432 1431 1430 1430 1429 1428 1427 1426 1425 1424 1423 1422 1421 1421 1420 1420 1419 1419 1418 1417 1416 1415 1414 1414 1413 1412
1438 1437 1437 1436 1436 1436 1435 1435 1435 1434 1434 1433 1433 1432 1432 1431 1430 1429 1428 1427 1426 1426 1425 1424 1422 1421 1421 1420 1419 1418 1418 1418 1417 1417 1416 1416 1415 1414 1413 1413 1412 1411 1411
1435 1434 1434 1434 1433 1433 1433 1432 1432 1431 1431 1430 1430 1429 1429 1428 1427 1426 1425 1424 1423 1422 1421 1420 1419 1418 1417 1417 1416 1415 1415 1414 1414 1414 1414 1413 1413 1412 1411 1411 1411 1410 1409
1432 1432 1431 1431 1430 1430 1430 1429 1429 1428 1428 1428 1427 1426 1426 1425 1424 1423 1422 1421 1420 1419 1418 1417 1416 1415 1414 1413 1413 1412 1412 1411 1411 1411 1411 1411 1410 1410 1410 1409 1409 1408 1408